ANA541 RJBD-RJTT

Flight info

Callsign ANA541
Flight time 1h 7m
Altitude 35000
Route KEC Y43 MENUR Y21 AKSEL
Aircraft B738/M-SDE2E3FGHIRWXY/LB1

Departure

Time 2026-04-15 07:58
Airport Nanki Shirahama Airport (RJBD)

Arrival

Time 2026-04-15 09:05
Airport Tokyo Haneda International Airport (RJTT)
Time Latitude Longitude Altitude Speed Heading
2026-04-15 07:47 33.66274 135.36091 314 ft 0 kts 230°
2026-04-15 07:53 33.66274 135.36090 314 ft 0 kts 231°
2026-04-15 07:53 33.66274 135.36088 314 ft 1 kts 249°
2026-04-15 07:53 33.66278 135.36084 314 ft 1 kts 316°
2026-04-15 07:54 33.66285 135.36089 312 ft 2 kts 49°
2026-04-15 07:54 33.66302 135.36119 313 ft 7 kts 56°
2026-04-15 07:54 33.66348 135.36199 309 ft 17 kts 52°
2026-04-15 07:54 33.66434 135.36252 303 ft 11 kts 333°
2026-04-15 07:55 33.66493 135.36198 303 ft 11 kts 321°
2026-04-15 07:55 33.66550 135.36142 305 ft 10 kts 321°
2026-04-15 07:55 33.66659 135.36037 305 ft 11 kts 321°
2026-04-15 07:56 33.66740 135.35959 305 ft 19 kts 321°
2026-04-15 07:56 33.66842 135.35850 305 ft 18 kts 302°
2026-04-15 07:56 33.66888 135.35761 304 ft 7 kts 320°
2026-04-15 07:56 33.66920 135.35754 305 ft 1 kts 30°
2026-04-15 07:57 33.66920 135.35780 304 ft 5 kts 112°
2026-04-15 07:57 33.66884 135.35818 304 ft 16 kts 140°
2026-04-15 07:57 33.66591 135.36103 304 ft 92 kts 141°
2026-04-15 07:57 33.65913 135.36765 306 ft 157 kts 140°
2026-04-15 07:58 33.64936 135.37647 677 ft 185 kts 143°
2026-04-15 07:58 33.63874 135.38602 1407 ft 192 kts 139°
2026-04-15 07:58 33.62901 135.39584 2540 ft 181 kts 130°
2026-04-15 07:58 33.62206 135.40933 2946 ft 203 kts 114°
2026-04-15 07:59 33.61531 135.42529 3162 ft 225 kts 116°
2026-04-15 07:59 33.60779 135.44262 3432 ft 245 kts 117°
2026-04-15 07:59 33.59954 135.46131 3926 ft 260 kts 118°
2026-04-15 07:59 33.59106 135.48040 4829 ft 259 kts 120°
2026-04-15 08:00 33.58236 135.49976 5531 ft 270 kts 120°
2026-04-15 08:00 33.57324 135.51990 6310 ft 279 kts 121°
2026-04-15 08:00 33.56383 135.54064 7040 ft 285 kts 121°
2026-04-15 08:00 33.55437 135.56146 7725 ft 292 kts 121°
2026-04-15 08:01 33.54459 135.58293 8444 ft 296 kts 121°
2026-04-15 08:01 33.53460 135.60484 9118 ft 303 kts 122°
2026-04-15 08:01 33.52437 135.62721 9785 ft 310 kts 122°
2026-04-15 08:01 33.51409 135.64971 10400 ft 317 kts 122°
2026-04-15 08:02 33.50308 135.67373 10595 ft 341 kts 122°
2026-04-15 08:02 33.49129 135.69944 10769 ft 362 kts 121°
2026-04-15 08:02 33.47886 135.72659 10985 ft 380 kts 121°
2026-04-15 08:02 33.46598 135.75470 11490 ft 389 kts 121°
2026-04-15 08:03 33.45498 135.78449 12107 ft 396 kts 105°
2026-04-15 08:03 33.45244 135.81738 12779 ft 402 kts 85°
2026-04-15 08:03 33.45761 135.84995 13419 ft 405 kts 77°
2026-04-15 08:03 33.46425 135.88296 13973 ft 411 kts 76°
2026-04-15 08:04 33.47116 135.91634 14542 ft 415 kts 76°
2026-04-15 08:04 33.47813 135.95010 15145 ft 419 kts 76°
2026-04-15 08:04 33.48504 135.98419 15719 ft 424 kts 76°
2026-04-15 08:04 33.49195 136.01880 16305 ft 430 kts 76°
2026-04-15 08:05 33.49885 136.05380 16897 ft 434 kts 76°
2026-04-15 08:05 33.50576 136.08920 17484 ft 438 kts 76°
2026-04-15 08:05 33.51268 136.12487 18025 ft 442 kts 76°
2026-04-15 08:05 33.51958 136.16049 18491 ft 446 kts 76°
2026-04-15 08:06 33.52660 136.19683 18980 ft 450 kts 76°
2026-04-15 08:06 33.53367 136.23349 19497 ft 453 kts 76°
2026-04-15 08:06 33.54078 136.27043 19994 ft 456 kts 76°
2026-04-15 08:06 33.54792 136.30754 20468 ft 459 kts 76°
2026-04-15 08:07 33.55512 136.34502 20918 ft 462 kts 76°
2026-04-15 08:07 33.56235 136.38269 21410 ft 466 kts 76°
2026-04-15 08:07 33.56962 136.42066 21933 ft 468 kts 76°
2026-04-15 08:07 33.57691 136.45880 22444 ft 472 kts 76°
2026-04-15 08:08 33.58417 136.49686 22916 ft 476 kts 76°
2026-04-15 08:08 33.59155 136.53563 23387 ft 479 kts 76°
2026-04-15 08:08 33.59898 136.57475 23756 ft 482 kts 76°
2026-04-15 08:08 33.60644 136.61404 24080 ft 485 kts 76°
2026-04-15 08:09 33.61393 136.65363 24380 ft 489 kts 76°
2026-04-15 08:09 33.62149 136.69359 24666 ft 492 kts 76°
2026-04-15 08:09 33.62906 136.73371 24973 ft 495 kts 76°
2026-04-15 08:09 33.63659 136.77363 25270 ft 498 kts 76°
2026-04-15 08:10 33.64439 136.81474 25586 ft 501 kts 76°
2026-04-15 08:10 33.65207 136.85506 25885 ft 503 kts 76°
2026-04-15 08:10 33.65987 136.89602 26189 ft 505 kts 76°
2026-04-15 08:10 33.66770 136.93729 26470 ft 508 kts 76°
2026-04-15 08:11 33.67554 136.97869 26744 ft 510 kts 76°
2026-04-15 08:11 33.68341 137.02040 27018 ft 513 kts 76°
2026-04-15 08:11 33.69128 137.06222 27291 ft 515 kts 76°
2026-04-15 08:11 33.69920 137.10431 27566 ft 517 kts 76°
2026-04-15 08:12 33.70709 137.14650 27831 ft 519 kts 76°
2026-04-15 08:12 33.71484 137.18836 28089 ft 521 kts 77°
2026-04-15 08:12 33.72271 137.23102 28334 ft 524 kts 77°
2026-04-15 08:12 33.73056 137.27378 28565 ft 526 kts 77°
2026-04-15 08:13 33.73845 137.31678 28825 ft 528 kts 77°
2026-04-15 08:13 33.74632 137.35978 29186 ft 527 kts 77°
2026-04-15 08:13 33.75420 137.40285 29599 ft 526 kts 77°
2026-04-15 08:13 33.76202 137.44571 29974 ft 526 kts 77°
2026-04-15 08:14 33.76986 137.48870 30219 ft 527 kts 77°
2026-04-15 08:14 33.77759 137.53119 30420 ft 529 kts 77°
2026-04-15 08:14 33.78545 137.57446 30633 ft 531 kts 77°
2026-04-15 08:14 33.79332 137.61791 30893 ft 532 kts 77°
2026-04-15 08:15 33.80120 137.66148 31142 ft 533 kts 77°
2026-04-15 08:15 33.80906 137.70508 31359 ft 535 kts 77°
2026-04-15 08:15 33.81706 137.74952 31570 ft 537 kts 77°
2026-04-15 08:15 33.82485 137.79289 31793 ft 539 kts 77°
2026-04-15 08:16 33.83274 137.83693 32028 ft 540 kts 77°
2026-04-15 08:16 33.84066 137.88120 32223 ft 542 kts 77°
2026-04-15 08:16 33.84857 137.92555 32424 ft 544 kts 77°
2026-04-15 08:16 33.85650 137.97013 32653 ft 545 kts 77°
2026-04-15 08:17 33.86442 138.01472 32882 ft 546 kts 77°
2026-04-15 08:17 33.87236 138.05948 33101 ft 548 kts 77°
2026-04-15 08:17 33.88030 138.10439 33297 ft 550 kts 77°
2026-04-15 08:17 33.88826 138.14951 33509 ft 551 kts 77°
2026-04-15 08:18 33.89611 138.19410 33732 ft 553 kts 77°
2026-04-15 08:18 33.90412 138.23937 33969 ft 553 kts 76°
2026-04-15 08:18 33.91462 138.28368 34239 ft 550 kts 68°
2026-04-15 08:18 33.92972 138.32561 34524 ft 544 kts 58°
2026-04-15 08:19 33.94768 138.36565 34782 ft 542 kts 57°
2026-04-15 08:19 33.98458 138.44529 34847 ft 546 kts 57°
2026-04-15 08:20 34.02094 138.52536 34841 ft 542 kts 58°
2026-04-15 08:20 34.05617 138.60471 34853 ft 539 kts 58°
2026-04-15 08:21 34.09133 138.68436 34856 ft 537 kts 58°
2026-04-15 08:21 34.12640 138.76383 34863 ft 536 kts 58°
2026-04-15 08:22 34.16143 138.84327 34860 ft 537 kts 58°
2026-04-15 08:22 34.19626 138.92247 34875 ft 538 kts 58°
2026-04-15 08:23 34.23147 139.00316 34862 ft 540 kts 59°
2026-04-15 08:23 34.26601 139.08328 34871 ft 542 kts 59°
2026-04-15 08:24 34.29940 139.16524 34869 ft 546 kts 63°
2026-04-15 08:24 34.32858 139.25031 34857 ft 548 kts 65°
2026-04-15 08:25 34.35698 139.33544 34835 ft 536 kts 65°
2026-04-15 08:25 34.37095 139.37663 34837 ft 521 kts 65°
2026-04-15 08:25 34.38464 139.41662 34843 ft 507 kts 64°
2026-04-15 08:25 34.39802 139.45547 34840 ft 493 kts 64°
2026-04-15 08:26 34.41103 139.49322 34840 ft 480 kts 64°
2026-04-15 08:26 34.42355 139.52962 34840 ft 468 kts 64°
2026-04-15 08:26 34.43588 139.56552 34841 ft 457 kts 64°
2026-04-15 08:27 34.46045 139.63715 34884 ft 467 kts 64°
2026-04-15 08:27 34.49112 139.70665 34880 ft 468 kts 44°
2026-04-15 08:27 34.51338 139.73503 34872 ft 460 kts 32°
2026-04-15 08:28 34.53892 139.75734 34876 ft 448 kts 21°
2026-04-15 08:28 34.59271 139.79507 34863 ft 443 kts 20°
2026-04-15 08:29 34.64489 139.83262 34860 ft 437 kts 21°
2026-04-15 08:29 34.69877 139.86132 34875 ft 404 kts 355°
2026-04-15 08:30 34.75425 139.86888 34882 ft 401 kts 354°
2026-04-15 08:30 34.81008 139.87603 34888 ft 405 kts 354°
2026-04-15 08:31 34.86576 139.88387 34876 ft 407 kts 355°
2026-04-15 08:31 34.92209 139.89200 34886 ft 408 kts 355°
2026-04-15 08:31 34.95011 139.89410 34849 ft 393 kts 342°
2026-04-15 08:32 34.97608 139.88770 34898 ft 377 kts 334°
2026-04-15 08:32 35.02661 139.87094 34879 ft 376 kts 333°
2026-04-15 08:33 35.07670 139.85452 34851 ft 373 kts 334°
2026-04-15 08:33 35.10161 139.84659 34584 ft 366 kts 334°
2026-04-15 08:33 35.12620 139.83878 34009 ft 366 kts 335°
2026-04-15 08:33 35.15133 139.83071 32709 ft 383 kts 336°
2026-04-15 08:34 35.17783 139.82219 31232 ft 404 kts 338°
2026-04-15 08:34 35.20552 139.81339 30107 ft 416 kts 339°
2026-04-15 08:34 35.23337 139.80470 29611 ft 406 kts 339°
2026-04-15 08:34 35.25888 139.79673 29508 ft 389 kts 339°
2026-04-15 08:35 35.28414 139.78877 29383 ft 372 kts 338°
2026-04-15 08:35 35.30815 139.78114 28882 ft 366 kts 338°
2026-04-15 08:35 35.33336 139.77571 28395 ft 370 kts 353°
2026-04-15 08:35 35.35865 139.77927 28333 ft 364 kts
2026-04-15 08:36 35.38207 139.79063 28018 ft 364 kts 25°
2026-04-15 08:36 35.40231 139.80952 27489 ft 370 kts 44°
2026-04-15 08:36 35.41742 139.83508 26945 ft 373 kts 63°
2026-04-15 08:36 35.42571 139.86501 26449 ft 371 kts 82°
2026-04-15 08:37 35.42642 139.89625 26085 ft 366 kts 101°
2026-04-15 08:37 35.41991 139.92590 25807 ft 355 kts 119°
2026-04-15 08:37 35.40737 139.95114 25525 ft 342 kts 137°
2026-04-15 08:37 35.39058 139.97115 25223 ft 332 kts 149°
2026-04-15 08:38 35.37133 139.98584 24884 ft 322 kts 163°
2026-04-15 08:38 35.35073 139.99462 24595 ft 314 kts 171°
2026-04-15 08:38 35.32971 140.00130 24322 ft 311 kts 173°
2026-04-15 08:38 35.30878 140.00772 24039 ft 310 kts 172°
2026-04-15 08:39 35.28793 140.01432 23734 ft 308 kts 172°
2026-04-15 08:39 35.26735 140.02099 23384 ft 304 kts 171°
2026-04-15 08:39 35.24685 140.02474 22826 ft 294 kts 188°
2026-04-15 08:39 35.22698 140.02118 22340 ft 285 kts 200°
2026-04-15 08:40 35.20848 140.01322 21894 ft 279 kts 209°
2026-04-15 08:40 35.19175 140.00179 21416 ft 274 kts 218°
2026-04-15 08:40 35.17758 139.98699 20957 ft 270 kts 229°
2026-04-15 08:40 35.16644 139.96880 20505 ft 267 kts 241°
2026-04-15 08:41 35.15899 139.94812 20065 ft 266 kts 252°
2026-04-15 08:41 35.15547 139.92603 19615 ft 266 kts 264°
2026-04-15 08:41 35.15590 139.90338 19178 ft 268 kts 275°
2026-04-15 08:41 35.16029 139.88123 18754 ft 271 kts 286°
2026-04-15 08:42 35.16862 139.86046 18338 ft 274 kts 298°
2026-04-15 08:42 35.18037 139.84235 17888 ft 278 kts 308°
2026-04-15 08:42 35.19465 139.82634 17446 ft 280 kts 317°
2026-04-15 08:42 35.21142 139.81408 16986 ft 285 kts 334°
2026-04-15 08:43 35.23040 139.80681 16552 ft 286 kts 339°
2026-04-15 08:43 35.24958 139.80039 16134 ft 285 kts 340°
2026-04-15 08:43 35.26867 139.79411 15739 ft 283 kts 340°
2026-04-15 08:43 35.28761 139.78786 15339 ft 283 kts 340°
2026-04-15 08:44 35.30660 139.78159 15114 ft 280 kts 340°
2026-04-15 08:44 35.32557 139.77658 14873 ft 282 kts 355°
2026-04-15 08:44 35.34496 139.78076 14578 ft 288 kts 22°
2026-04-15 08:44 35.36117 139.79453 14327 ft 290 kts 47°
2026-04-15 08:45 35.37137 139.81548 14062 ft 288 kts 74°
2026-04-15 08:45 35.37333 139.83945 13794 ft 282 kts 101°
2026-04-15 08:45 35.36693 139.86164 13495 ft 274 kts 127°
2026-04-15 08:45 35.35418 139.87838 13214 ft 266 kts 148°
2026-04-15 08:46 35.33801 139.88816 12920 ft 257 kts 172°
2026-04-15 08:46 35.32056 139.88784 12627 ft 250 kts 197°
2026-04-15 08:46 35.30482 139.87943 12340 ft 246 kts 216°
2026-04-15 08:46 35.29273 139.86525 12049 ft 245 kts 235°
2026-04-15 08:47 35.28552 139.84641 11777 ft 246 kts 255°
2026-04-15 08:47 35.28451 139.82558 11528 ft 248 kts 276°
2026-04-15 08:47 35.29007 139.80546 11284 ft 254 kts 298°
2026-04-15 08:47 35.30146 139.78885 11045 ft 259 kts 317°
2026-04-15 08:48 35.31721 139.77802 10795 ft 264 kts 343°
2026-04-15 08:48 35.33568 139.77847 10561 ft 278 kts 19°
2026-04-15 08:48 35.35238 139.79269 10381 ft 312 kts 50°
2026-04-15 08:48 35.36513 139.81391 10166 ft 315 kts 56°
2026-04-15 08:49 35.37856 139.83503 9920 ft 312 kts 49°
2026-04-15 08:49 35.39373 139.85385 9670 ft 308 kts 43°
2026-04-15 08:49 35.40982 139.87096 9406 ft 304 kts 40°
2026-04-15 08:49 35.42610 139.88728 9133 ft 300 kts 40°
2026-04-15 08:50 35.44210 139.90347 8869 ft 296 kts 43°
2026-04-15 08:50 35.45675 139.92092 8616 ft 292 kts 46°
2026-04-15 08:50 35.47090 139.93862 8359 ft 289 kts 47°
2026-04-15 08:50 35.48494 139.95607 8108 ft 286 kts 46°
2026-04-15 08:51 35.49893 139.97331 7875 ft 282 kts 46°
2026-04-15 08:51 35.51247 139.98991 7908 ft 268 kts 46°
2026-04-15 08:51 35.52534 140.00565 7930 ft 257 kts 46°
2026-04-15 08:51 35.53794 140.02107 7955 ft 255 kts 46°
2026-04-15 08:52 35.55021 140.03647 7935 ft 256 kts 53°
2026-04-15 08:52 35.55774 140.05571 7954 ft 249 kts 83°
2026-04-15 08:52 35.55679 140.07650 7952 ft 244 kts 111°
2026-04-15 08:52 35.54809 140.09394 7961 ft 240 kts 138°
2026-04-15 08:53 35.53398 140.10427 7966 ft 238 kts 165°
2026-04-15 08:53 35.51762 140.10554 7953 ft 239 kts 190°
2026-04-15 08:53 35.50221 140.09807 7956 ft 241 kts 214°
2026-04-15 08:53 35.49172 140.08251 7949 ft 245 kts 245°
2026-04-15 08:54 35.48891 140.06189 7955 ft 250 kts 273°
2026-04-15 08:54 35.49433 140.04161 7961 ft 255 kts 301°
2026-04-15 08:54 35.50711 140.02655 7948 ft 259 kts 331°
2026-04-15 08:54 35.52437 140.02110 7959 ft 260 kts
2026-04-15 08:55 35.54152 140.02711 7952 ft 258 kts 33°
2026-04-15 08:55 35.55614 140.03977 7951 ft 259 kts 27°
2026-04-15 08:55 35.57362 140.04342 7961 ft 259 kts 349°
2026-04-15 08:55 35.58925 140.03405 7955 ft 256 kts 312°
2026-04-15 08:56 35.59779 140.01540 7952 ft 252 kts 285°
2026-04-15 08:56 35.60225 139.99427 7703 ft 258 kts 276°
2026-04-15 08:56 35.60471 139.97242 7457 ft 258 kts 277°
2026-04-15 08:56 35.60860 139.95090 7208 ft 258 kts 284°
2026-04-15 08:57 35.61455 139.93017 6963 ft 257 kts 291°
2026-04-15 08:57 35.62208 139.91032 6713 ft 256 kts 296°
2026-04-15 08:57 35.63066 139.89126 6481 ft 255 kts 299°
2026-04-15 08:57 35.63993 139.87277 6232 ft 254 kts 302°
2026-04-15 08:58 35.64960 139.85472 5981 ft 253 kts 303°
2026-04-15 08:58 35.66943 139.81962 5482 ft 250 kts 305°
2026-04-15 08:58 35.67954 139.80224 5231 ft 249 kts 306°
2026-04-15 08:59 35.68964 139.78504 4987 ft 248 kts 306°
2026-04-15 08:59 35.69976 139.76794 4740 ft 247 kts 307°
2026-04-15 08:59 35.70986 139.75090 4486 ft 246 kts 307°
2026-04-15 08:59 35.71988 139.73403 4238 ft 243 kts 307°
2026-04-15 09:00 35.72961 139.71763 4133 ft 230 kts 307°
2026-04-15 09:00 35.73645 139.70096 4003 ft 217 kts 276°
2026-04-15 09:00 35.73287 139.68432 3987 ft 198 kts 227°
2026-04-15 09:00 35.72094 139.67607 3622 ft 205 kts 181°
2026-04-15 09:01 35.70800 139.68097 3413 ft 193 kts 144°
2026-04-15 09:01 35.69695 139.69020 3151 ft 192 kts 145°
2026-04-15 09:01 35.68578 139.69909 2879 ft 189 kts 146°
2026-04-15 09:01 35.67489 139.70749 2616 ft 182 kts 147°
2026-04-15 09:02 35.66416 139.71561 2376 ft 180 kts 146°
2026-04-15 09:02 35.65383 139.72330 2184 ft 174 kts 147°
2026-04-15 09:02 35.64346 139.73094 2134 ft 176 kts 147°
2026-04-15 09:02 35.63346 139.73848 1875 ft 163 kts 147°
2026-04-15 09:03 35.62391 139.74536 1465 ft 157 kts 147°
2026-04-15 09:03 35.61488 139.75107 1447 ft 144 kts 152°
2026-04-15 09:03 35.60609 139.75695 1332 ft 145 kts 146°
2026-04-15 09:03 35.59751 139.76361 1023 ft 149 kts 146°
2026-04-15 09:04 35.58908 139.77011 762 ft 137 kts 148°
2026-04-15 09:04 35.58087 139.77583 540 ft 135 kts 149°
2026-04-15 09:04 35.57307 139.78158 349 ft 134 kts 150°
2026-04-15 09:04 35.56493 139.78721 132 ft 133 kts 150°
2026-04-15 09:05 35.55708 139.79276 29 ft 122 kts 150°
2026-04-15 09:05 35.55118 139.79697 27 ft 68 kts 150°
2026-04-15 09:05 35.54836 139.79883 28 ft 27 kts 160°
2026-04-15 09:05 35.54674 139.79929 27 ft 18 kts 176°
2026-04-15 09:06 35.54585 139.79880 25 ft 14 kts 260°
2026-04-15 09:06 35.54630 139.79791 26 ft 13 kts 330°
2026-04-15 09:06 35.54707 139.79737 25 ft 13 kts 330°
2026-04-15 09:06 35.54782 139.79683 26 ft 12 kts 329°
2026-04-15 09:07 35.54857 139.79631 30 ft 12 kts 330°
2026-04-15 09:07 35.54929 139.79580 27 ft 12 kts 330°
2026-04-15 09:07 35.55005 139.79526 28 ft 16 kts 329°
2026-04-15 09:07 35.55110 139.79444 26 ft 16 kts 310°
2026-04-15 09:08 35.55094 139.79340 25 ft 12 kts 236°
2026-04-15 09:08 35.55073 139.79299 28 ft 2 kts 238°
2026-04-15 09:08 35.55041 139.79263 28 ft 5 kts 191°
2026-04-15 09:08 35.55018 139.79279 28 ft 6 kts 149°
2026-04-15 09:09 35.54973 139.79300 28 ft 7 kts 160°
2026-04-15 09:09 35.54969 139.79301 29 ft 0 kts 160°